Location: Stara Lesna
(49.1528°N, 20.2911°E)
Time: 10:20:02
(UTC+02:00)

Meteor 1-31 Rocket - Pass Details

Date: 21 September 2019
Orbit: 521 x 548 km, 97.6° (Epoch: 17 October)

Event Time Altitude Azimuth Distance (km) Brightness Sun altitude
Rises 05:06:01 0° 16° (NNE) 2,721 6.9 -13.2°
Reaches altitude 10° 05:08:11 10° 20° (NNE) 1,819 6.0 -12.9°
Maximum altitude 05:12:04 58° 101° (E) 633 3.4 -12.3°
Drops below altitude 10° 05:15:53 10° 181° (S) 1,788 5.3 -11.7°
Sets 05:18:00 0° 185° (S) 2,669 6.1 -11.3°
